Total_Precipitation_Accumulation
2.17 2.84 3.53 4.10 4.77 5.54 6.12 5.99 5.39 4.92 4.38 3.91 3.38 3.31 3.12 2.81 2.52 2.24 1.98 1.94 1.88 1.72 1.80 1.71 1.82 1.54 1.57 1.63 1.63 1.86 2.00 1.91 1.91 2.25 2.34 1.93 1.57 1.62 1.63 1.64 1.89 1.96 1.97
2.17 2.92 3.52 3.73 3.74 4.03 4.28 3.78 3.58 3.59 3.27 2.99 2.92 2.85 2.72 2.42 2.20 2.05 1.99 1.64 1.64 1.63 1.58 1.80 1.71 1.63 1.74 1.72 1.72 1.88 2.00 1.93 1.97 2.19 2.45 2.18 2.16 1.91 1.43 1.68 1.81 1.85 2.07
2.29 2.80 2.97 2.96 2.84 2.83 2.81 2.58 2.52 2.85 2.86 2.81 2.77 2.75 2.73 2.59 2.34 2.03 1.98 1.65 1.48 1.50 1.61 1.64 1.74 1.81 1.54 1.73 1.86 1.82 1.89 1.94 1.87 1.88 2.21 2.22 2.20 1.95 1.53 1.48 1.55 1.75 2.06
2.27 2.24 1.83 1.70 1.85 1.94 2.05 2.30 2.38 2.52 2.47 2.56 2.41 2.23 2.04 1.92 1.84 1.80 1.86 1.86 1.63 1.51 1.44 1.51 1.76 1.88 1.64 1.83 1.50 1.61 1.86 1.97 1.81 1.82 1.74 1.72 1.86 2.00 1.94 1.67 1.53 1.63 1.81
1.32 1.15 0.98 1.02 1.26 1.53 1.78 2.18 2.27 2.31 2.25 2.22 2.26 2.29 2.13 2.09 1.99 1.94 2.11 2.09 2.07 1.84 1.52 1.53 1.75 1.89 1.83 1.87 1.74 1.95 1.79 1.71 1.68 1.71 1.75 1.75 1.69 1.60 1.84 1.94 1.82 1.71 1.53
0.68 0.72 0.78 0.96 1.21 1.39 1.50 1.76 1.91 2.08 2.14 2.19 2.28 2.24 2.20 2.26 2.11 1.99 1.93 1.88 1.93 1.86 1.73 1.72 1.92 1.92 1.87 1.91 1.86 1.89 1.79 1.76 1.77 1.69 1.64 1.88 1.88 1.75 1.87 1.75 1.74 1.70 1.37
0.56 0.72 0.80 0.98 1.08 1.19 1.23 1.38 1.47 1.66 1.85 1.97 2.05 2.09 2.15 2.21 2.07 1.98 1.87 1.81 1.69 1.64 1.73 1.82 2.01 1.91 1.87 1.82 1.89 1.88 1.85 1.90 1.95 1.86 1.70 1.70 1.78 1.81 1.80 1.78 1.56 1.48 1.36
0.46 0.51 0.60 0.66 0.77 0.92 1.16 1.35 1.33 1.34 1.40 1.48 1.66 1.82 1.86 1.92 1.89 1.98 1.80 1.68 1.57 1.56 1.71 1.80 1.74 1.72 1.75 1.65 1.86 1.78 1.74 1.81 1.86 1.78 2.04 1.95 1.69 1.79 1.79 1.86 2.00 1.85 1.71
0.49 0.43 0.44 0.56 0.65 0.70 0.83 1.05 1.11 1.14 1.19 1.25 1.38 1.46 1.51 1.64 1.83 1.80 1.62 1.47 1.50 1.52 1.55 1.53 1.55 1.59 1.63 1.74 1.90 1.81 1.78 1.88 1.78 1.76 2.11 2.00 1.71 1.69 1.73 1.80 2.03 2.30 2.07
0.43 0.49 0.50 0.54 0.62 0.63 0.75 0.92 1.07 1.14 1.16 1.17 1.21 1.16 1.31 1.42 1.58 1.61 1.56 1.47 1.40 1.50 1.55 1.53 1.55 1.57 1.51 1.59 1.77 1.69 1.79 1.87 1.84 1.85 1.93 1.94 1.82 1.82 1.86 1.92 2.04 2.27 2.26
0.43 0.54 0.53 0.54 0.52 0.52 0.62 0.76 0.95 1.06 1.01 1.05 1.09 1.17 1.26 1.43 1.49 1.45 1.47 1.46 1.45 1.52 1.56 1.59 1.67 1.63 1.59 1.64 1.73 1.63 1.76 1.82 1.92 1.91 1.87 1.88 2.05 2.07 1.92 1.97 2.02 2.20 2.39
0.48 0.54 0.56 0.53 0.45 0.50 0.60 0.69 0.86 0.99 1.05 1.05 1.12 1.23 1.28 1.36 1.43 1.38 1.45 1.58 1.59 1.64 1.63 1.67 1.77 1.70 1.72 1.79 1.69 1.66 1.73 1.80 1.83 1.96 2.12 2.09 2.13 2.06 1.97 2.06 2.09 2.22 2.47
0.52 0.54 0.65 0.60 0.51 0.52 0.59 0.72 0.97 1.18 1.34 1.36 1.31 1.27 1.23 1.28 1.40 1.44 1.48 1.57 1.68 1.74 1.72 1.66 1.68 1.76 1.89 1.93 1.75 1.68 1.65 1.59 1.57 1.73 1.97 2.22 2.50 2.34 2.20 2.14 2.11 2.17 2.28
0.47 0.58 0.69 0.74 0.79 0.77 0.79 0.93 1.11 1.17 1.29 1.25 1.21 1.25 1.27 1.38 1.52 1.56 1.58 1.62 1.62 1.66 1.73 1.76 1.75 1.75 1.77 1.76 1.76 1.79 1.75 1.67 1.55 1.58 1.68 1.79 2.04 2.24 2.39 2.21 2.05 2.10 2.23
0.61 0.66 0.75 0.82 0.89 0.95 0.94 0.94 1.02 1.04 1.16 1.44 1.54 1.61 1.58 1.60 1.71 1.78 1.74 1.78 1.77 1.73 1.89 1.95 1.93 1.91 1.86 1.71 1.83 1.95 1.82 1.80 1.68 1.64 1.61 1.50 1.63 1.81 1.99 1.96 2.16 2.23 2.21
0.71 0.77 0.82 0.87 0.90 0.94 1.04 1.10 1.12 1.15 1.33 1.74 1.97 2.06 2.05 2.06 2.08 2.11 2.11 2.14 2.10 2.21 2.25 2.17 2.13 2.07 1.84 1.95 1.96 1.94 1.92 1.97 1.90 1.82 1.75 1.61 1.52 1.55 1.65 1.72 1.87 2.07 2.12
0.67 0.74 0.86 0.97 0.96 0.95 1.01 1.11 1.24 1.32 1.46 1.72 1.90 1.99 2.06 2.13 2.24 2.29 2.34 2.36 2.39 2.40 2.41 2.45 2.37 2.26 2.28 2.25 1.94 1.88 1.86 1.92 1.93 2.01 2.02 1.70 1.44 1.58 1.55 1.64 1.67 1.64 1.74
0.75 0.85 0.87 0.98 1.06 1.11 1.20 1.36 1.54 1.72 1.79 1.91 2.10 2.21 2.18 2.19 2.25 2.26 2.20 2.22 2.34 2.37 2.32 2.24 2.13 2.08 2.06 2.05 1.79 1.69 1.58 1.68 1.73 1.73 1.74 1.72 1.58 1.51 1.53 1.53 1.44 1.35 1.36
0.90 1.07 1.21 1.20 1.26 1.39 1.51 1.60 1.80 1.96 2.03 2.04 2.22 2.35 2.45 2.52 2.43 2.31 2.32 2.35 2.36 2.20 2.08 1.98 1.96 1.94 1.95 1.95 1.76 1.65 1.50 1.50 1.50 1.50 1.52 1.57 1.49 1.51 1.43 1.33 1.31 1.27 1.21
0.97 1.07 1.28 1.41 1.43 1.59 1.70 1.74 1.83 1.94 2.04 2.02 2.10 2.26 2.36 2.54 2.66 2.59 2.58 2.52 2.41 2.26 2.17 2.09 2.08 2.06 2.08 2.17 1.93 1.79 1.65 1.66 1.65 1.71 1.68 1.64 1.51 1.47 1.33 1.21 1.21 1.14 1.07
0.96 1.00 1.09 1.25 1.35 1.43 1.52 1.68 1.77 1.77 1.86 1.89 1.88 2.03 2.25 2.42 2.55 2.68 2.69 2.69 2.59 2.45 2.25 2.10 2.06 2.04 2.10 2.21 2.05 1.88 1.67 1.69 1.81 1.86 1.91 1.85 1.72 1.40 1.24 1.10 1.04 1.02 1.10
1.00 1.03 1.09 1.17 1.26 1.40 1.61 1.78 1.83 1.81 1.81 1.86 1.94 2.06 2.25 2.35 2.37 2.42 2.48 2.58 2.55 2.50 2.40 2.16 1.95 1.89 1.85 1.83 1.83 1.66 1.54 1.56 1.64 1.76 1.90 1.91 1.78 1.52 1.34 1.18 1.07 1.06 1.04
1.07 1.04 1.09 1.23 1.41 1.58 1.78 1.98 1.98 1.99 2.00 2.03 2.08 2.14 2.24 2.32 2.37 2.35 2.34 2.33 2.27 2.16 2.09 1.97 1.89 1.87 1.85 1.78 1.64 1.42 1.32 1.33 1.37 1.50 1.80 1.91 1.78 1.60 1.36 1.23 1.15 1.02 0.90
1.11 1.09 1.10 1.18 1.37 1.50 1.60 1.79 1.90 1.93 2.06 2.02 1.94 1.90 1.91 1.96 2.03 2.08 2.10 2.10 2.03 1.97 1.90 1.83 1.82 1.77 1.74 1.64 1.57 1.47 1.31 1.25 1.24 1.26 1.43 1.52 1.49 1.34 1.23 1.13 1.00 0.89 0.86
1.16 1.16 1.19 1.25 1.31 1.37 1.41 1.50 1.64 1.76 1.96 2.06 2.01 1.99 1.96 1.92 1.94 2.01 2.08 1.95 1.88 1.89 1.79 1.69 1.76 1.77 1.64 1.60 1.56 1.46 1.37 1.29 1.31 1.26 1.28 1.37 1.45 1.44 1.38 1.35 1.24 1.13 1.06
1.16 1.23 1.29 1.33 1.32 1.33 1.42 1.53 1.66 1.85 2.06 2.08 1.98 1.99 2.04 2.06 2.05 2.04 2.09 2.14 1.95 1.88 1.75 1.68 1.63 1.60 1.51 1.43 1.29 1.23 1.19 1.11 1.07 0.99 1.04 1.23 1.40 1.53 1.55 1.57 1.50 1.38 1.27